<?xml version="1.0" encoding="UTF-8" standalone="no" ?>
<gpx xmlns="http://www.topografix.com/GPX/1/1" xmlns:xsi="http://www.w3.org/2001/XMLSchema-instance" xsi:schemaLocation="http://www.topografix.com/GPX/1/1 http://www.topografix.com/GPX/1/1/gpx.xsd" version="1.1" creator="VisuGPX - https://www.visugpx.com">
  <metadata>
    <name>Col du Portet</name>
  </metadata>
  <trk>
    <name><![CDATA[Col du Portet]]></name>
    <trkseg>
      <trkpt lat="42.81576" lon="0.32053">
        <ele>826.048</ele>
        <time>2005-07-13T05:45:01Z</time>
      </trkpt>
      <trkpt lat="42.81625" lon="0.32006">
        <ele>822.061</ele>
        <time>2005-07-13T05:45:01Z</time>
      </trkpt>
      <trkpt lat="42.81678" lon="0.32077">
        <ele>821.017</ele>
        <time>2005-07-13T05:45:01Z</time>
      </trkpt>
      <trkpt lat="42.81738" lon="0.32139">
        <ele>818.006</ele>
        <time>2005-07-13T05:45:01Z</time>
      </trkpt>
      <trkpt lat="42.8182" lon="0.32203">
        <ele>816.095</ele>
        <time>2005-07-13T05:45:01Z</time>
      </trkpt>
      <trkpt lat="42.81843" lon="0.32236">
        <ele>815.03</ele>
        <time>2005-07-13T05:45:01Z</time>
      </trkpt>
      <trkpt lat="42.8185" lon="0.32269">
        <ele>814.066</ele>
        <time>2005-07-13T05:45:01Z</time>
      </trkpt>
      <trkpt lat="42.81886" lon="0.32253">
        <ele>813.031</ele>
        <time>2005-07-13T05:45:01Z</time>
      </trkpt>
      <trkpt lat="42.81947" lon="0.32299">
        <ele>811.049</ele>
        <time>2005-07-13T05:45:01Z</time>
      </trkpt>
      <trkpt lat="42.81996" lon="0.32261">
        <ele>809.033</ele>
        <time>2005-07-13T05:45:01Z</time>
      </trkpt>
      <trkpt lat="42.82013" lon="0.32199">
        <ele>809.062</ele>
        <time>2005-07-13T05:45:01Z</time>
      </trkpt>
      <trkpt lat="42.8206" lon="0.32097">
        <ele>807.083</ele>
        <time>2005-07-13T05:45:01Z</time>
      </trkpt>
      <trkpt lat="42.82095" lon="0.32062">
        <ele>805.011</ele>
        <time>2005-07-13T05:45:01Z</time>
      </trkpt>
      <trkpt lat="42.82235" lon="0.317">
        <ele>814.006</ele>
        <time>2005-07-13T05:45:01Z</time>
      </trkpt>
      <trkpt lat="42.82272" lon="0.3165">
        <ele>818.017</ele>
        <time>2005-07-13T05:45:01Z</time>
      </trkpt>
      <trkpt lat="42.82347" lon="0.31608">
        <ele>823.042</ele>
        <time>2005-07-13T05:45:01Z</time>
      </trkpt>
      <trkpt lat="42.82445" lon="0.31678">
        <ele>821.048</ele>
        <time>2005-07-13T05:45:01Z</time>
      </trkpt>
      <trkpt lat="42.82471" lon="0.31723">
        <ele>820.093</ele>
        <time>2005-07-13T05:45:01Z</time>
      </trkpt>
      <trkpt lat="42.82512" lon="0.31737">
        <ele>820.091</ele>
        <time>2005-07-13T05:45:01Z</time>
      </trkpt>
      <trkpt lat="42.82569" lon="0.31811">
        <ele>818.035</ele>
        <time>2005-07-13T05:45:01Z</time>
      </trkpt>
      <trkpt lat="42.82632" lon="0.31803">
        <ele>820.079</ele>
        <time>2005-07-13T05:45:01Z</time>
      </trkpt>
      <trkpt lat="42.82693" lon="0.31813">
        <ele>823.005</ele>
        <time>2005-07-13T05:45:01Z</time>
      </trkpt>
      <trkpt lat="42.82765" lon="0.31856">
        <ele>827.025</ele>
        <time>2005-07-13T05:45:01Z</time>
      </trkpt>
      <trkpt lat="42.82872" lon="0.31895">
        <ele>832.006</ele>
        <time>2005-07-13T05:45:01Z</time>
      </trkpt>
      <trkpt lat="42.82935" lon="0.31911">
        <ele>842.058</ele>
        <time>2005-07-13T05:45:01Z</time>
      </trkpt>
      <trkpt lat="42.82989" lon="0.31946">
        <ele>851.023</ele>
        <time>2005-07-13T05:45:01Z</time>
      </trkpt>
      <trkpt lat="42.83035" lon="0.32002">
        <ele>853.069</ele>
        <time>2005-07-13T05:45:01Z</time>
      </trkpt>
      <trkpt lat="42.83159" lon="0.32111">
        <ele>864.094</ele>
        <time>2005-07-13T05:45:01Z</time>
      </trkpt>
      <trkpt lat="42.83188" lon="0.3211">
        <ele>876.042</ele>
        <time>2005-07-13T05:45:01Z</time>
      </trkpt>
      <trkpt lat="42.83211" lon="0.32155">
        <ele>864.086</ele>
        <time>2005-07-13T05:45:01Z</time>
      </trkpt>
      <trkpt lat="42.83273" lon="0.32198">
        <ele>870.094</ele>
        <time>2005-07-13T05:45:01Z</time>
      </trkpt>
      <trkpt lat="42.83297" lon="0.32197">
        <ele>879.057</ele>
        <time>2005-07-13T05:45:01Z</time>
      </trkpt>
      <trkpt lat="42.83311" lon="0.32215">
        <ele>879.022</ele>
        <time>2005-07-13T05:45:01Z</time>
      </trkpt>
      <trkpt lat="42.83336" lon="0.32202">
        <ele>893.006</ele>
        <time>2005-07-13T05:45:01Z</time>
      </trkpt>
      <trkpt lat="42.83363" lon="0.32204">
        <ele>908.04</ele>
        <time>2005-07-13T05:45:01Z</time>
      </trkpt>
      <trkpt lat="42.83357" lon="0.32244">
        <ele>891.025</ele>
        <time>2005-07-13T05:45:01Z</time>
      </trkpt>
      <trkpt lat="42.83378" lon="0.32277">
        <ele>889.041</ele>
        <time>2005-07-13T05:45:01Z</time>
      </trkpt>
      <trkpt lat="42.83448" lon="0.3233">
        <ele>906.036</ele>
        <time>2005-07-13T05:45:01Z</time>
      </trkpt>
      <trkpt lat="42.83503" lon="0.32401">
        <ele>909.024</ele>
        <time>2005-07-13T05:45:01Z</time>
      </trkpt>
      <trkpt lat="42.83545" lon="0.32439">
        <ele>918.068</ele>
        <time>2005-07-13T05:45:01Z</time>
      </trkpt>
      <trkpt lat="42.83563" lon="0.32457">
        <ele>921.086</ele>
        <time>2005-07-13T05:45:01Z</time>
      </trkpt>
      <trkpt lat="42.83579" lon="0.32487">
        <ele>919.06</ele>
        <time>2005-07-13T05:45:01Z</time>
      </trkpt>
      <trkpt lat="42.836" lon="0.32501">
        <ele>925.026</ele>
        <time>2005-07-13T05:45:01Z</time>
      </trkpt>
      <trkpt lat="42.83618" lon="0.32531">
        <ele>924.006</ele>
        <time>2005-07-13T05:45:01Z</time>
      </trkpt>
      <trkpt lat="42.83703" lon="0.32604">
        <ele>944.049</ele>
        <time>2005-07-13T05:45:01Z</time>
      </trkpt>
      <trkpt lat="42.83705" lon="0.32586">
        <ele>953.074</ele>
        <time>2005-07-13T05:45:01Z</time>
      </trkpt>
      <trkpt lat="42.83665" lon="0.32536">
        <ele>949.08</ele>
        <time>2005-07-13T05:45:01Z</time>
      </trkpt>
      <trkpt lat="42.83628" lon="0.32458">
        <ele>960.075</ele>
        <time>2005-07-13T05:45:01Z</time>
      </trkpt>
      <trkpt lat="42.836" lon="0.32422">
        <ele>958.013</ele>
        <time>2005-07-13T05:45:01Z</time>
      </trkpt>
      <trkpt lat="42.83577" lon="0.32365">
        <ele>969.097</ele>
        <time>2005-07-13T05:45:01Z</time>
      </trkpt>
      <trkpt lat="42.83528" lon="0.32281">
        <ele>981.073</ele>
        <time>2005-07-13T05:45:01Z</time>
      </trkpt>
      <trkpt lat="42.83487" lon="0.32267">
        <ele>964.085</ele>
        <time>2005-07-13T05:45:01Z</time>
      </trkpt>
      <trkpt lat="42.83473" lon="0.32225">
        <ele>978.013</ele>
        <time>2005-07-13T05:45:01Z</time>
      </trkpt>
      <trkpt lat="42.83518" lon="0.32126">
        <ele>1026.006</ele>
        <time>2005-07-13T05:45:01Z</time>
      </trkpt>
      <trkpt lat="42.83477" lon="0.32057">
        <ele>1006.068</ele>
        <time>2005-07-13T05:45:01Z</time>
      </trkpt>
      <trkpt lat="42.83457" lon="0.32061">
        <ele>995.093</ele>
        <time>2005-07-13T05:45:01Z</time>
      </trkpt>
      <trkpt lat="42.83432" lon="0.32068">
        <ele>984.019</ele>
        <time>2005-07-13T05:45:01Z</time>
      </trkpt>
      <trkpt lat="42.8341" lon="0.32068">
        <ele>976.064</ele>
        <time>2005-07-13T05:45:01Z</time>
      </trkpt>
      <trkpt lat="42.83398" lon="0.32044">
        <ele>987.032</ele>
        <time>2005-07-13T05:45:01Z</time>
      </trkpt>
      <trkpt lat="42.83395" lon="0.32002">
        <ele>1013.086</ele>
        <time>2005-07-13T05:45:01Z</time>
      </trkpt>
      <trkpt lat="42.83366" lon="0.31997">
        <ele>1004.078</ele>
        <time>2005-07-13T05:45:01Z</time>
      </trkpt>
      <trkpt lat="42.8335" lon="0.31994">
        <ele>998.033</ele>
        <time>2005-07-13T05:45:01Z</time>
      </trkpt>
      <trkpt lat="42.83306" lon="0.31941">
        <ele>1015.026</ele>
        <time>2005-07-13T05:45:01Z</time>
      </trkpt>
      <trkpt lat="42.83299" lon="0.31898">
        <ele>1035.006</ele>
        <time>2005-07-13T05:45:01Z</time>
      </trkpt>
      <trkpt lat="42.83204" lon="0.31789">
        <ele>1037.018</ele>
        <time>2005-07-13T05:45:01Z</time>
      </trkpt>
      <trkpt lat="42.83197" lon="0.31758">
        <ele>1048.083</ele>
        <time>2005-07-13T05:45:01Z</time>
      </trkpt>
      <trkpt lat="42.83156" lon="0.31735">
        <ele>1043.099</ele>
        <time>2005-07-13T05:45:01Z</time>
      </trkpt>
      <trkpt lat="42.8314" lon="0.31693">
        <ele>1059.044</ele>
        <time>2005-07-13T05:45:01Z</time>
      </trkpt>
      <trkpt lat="42.8311" lon="0.31655">
        <ele>1059.022</ele>
        <time>2005-07-13T05:45:01Z</time>
      </trkpt>
      <trkpt lat="42.83118" lon="0.31599">
        <ele>1081.056</ele>
        <time>2005-07-13T05:45:01Z</time>
      </trkpt>
      <trkpt lat="42.83106" lon="0.31551">
        <ele>1080.085</ele>
        <time>2005-07-13T05:45:01Z</time>
      </trkpt>
      <trkpt lat="42.83162" lon="0.31424">
        <ele>1110.089</ele>
        <time>2005-07-13T05:45:01Z</time>
      </trkpt>
      <trkpt lat="42.83138" lon="0.31388">
        <ele>1098.017</ele>
        <time>2005-07-13T05:45:01Z</time>
      </trkpt>
      <trkpt lat="42.83034" lon="0.31346">
        <ele>1083.006</ele>
        <time>2005-07-13T05:45:01Z</time>
      </trkpt>
      <trkpt lat="42.83034" lon="0.31306">
        <ele>1098.089</ele>
        <time>2005-07-13T05:45:01Z</time>
      </trkpt>
      <trkpt lat="42.83056" lon="0.31205">
        <ele>1129.024</ele>
        <time>2005-07-13T05:45:01Z</time>
      </trkpt>
      <trkpt lat="42.83036" lon="0.31175">
        <ele>1118.03</ele>
        <time>2005-07-13T05:45:01Z</time>
      </trkpt>
      <trkpt lat="42.83037" lon="0.31135">
        <ele>1124.055</ele>
        <time>2005-07-13T05:45:01Z</time>
      </trkpt>
      <trkpt lat="42.83056" lon="0.31071">
        <ele>1141.033</ele>
        <time>2005-07-13T05:45:01Z</time>
      </trkpt>
      <trkpt lat="42.83032" lon="0.31004">
        <ele>1129.087</ele>
        <time>2005-07-13T05:45:01Z</time>
      </trkpt>
      <trkpt lat="42.83038" lon="0.30967">
        <ele>1138.051</ele>
        <time>2005-07-13T05:45:01Z</time>
      </trkpt>
      <trkpt lat="42.83071" lon="0.30905">
        <ele>1159.001</ele>
        <time>2005-07-13T05:45:01Z</time>
      </trkpt>
      <trkpt lat="42.83063" lon="0.30857">
        <ele>1150.011</ele>
        <time>2005-07-13T05:45:01Z</time>
      </trkpt>
      <trkpt lat="42.83053" lon="0.3079">
        <ele>1156.006</ele>
        <time>2005-07-13T05:45:01Z</time>
      </trkpt>
      <trkpt lat="42.83053" lon="0.30674">
        <ele>1168.026</ele>
        <time>2005-07-13T05:45:01Z</time>
      </trkpt>
      <trkpt lat="42.83062" lon="0.30652">
        <ele>1174.091</ele>
        <time>2005-07-13T05:45:01Z</time>
      </trkpt>
      <trkpt lat="42.8308" lon="0.30679">
        <ele>1185.067</ele>
        <time>2005-07-13T05:45:01Z</time>
      </trkpt>
      <trkpt lat="42.8307" lon="0.30756">
        <ele>1174.062</ele>
        <time>2005-07-13T05:45:01Z</time>
      </trkpt>
      <trkpt lat="42.83087" lon="0.3081">
        <ele>1175.09</ele>
        <time>2005-07-13T05:45:01Z</time>
      </trkpt>
      <trkpt lat="42.83129" lon="0.30876">
        <ele>1191.054</ele>
        <time>2005-07-13T05:45:01Z</time>
      </trkpt>
      <trkpt lat="42.83129" lon="0.30915">
        <ele>1189.068</ele>
        <time>2005-07-13T05:45:01Z</time>
      </trkpt>
      <trkpt lat="42.8315" lon="0.30915">
        <ele>1199.042</ele>
        <time>2005-07-13T05:45:01Z</time>
      </trkpt>
      <trkpt lat="42.83156" lon="0.30878">
        <ele>1206.026</ele>
        <time>2005-07-13T05:45:01Z</time>
      </trkpt>
      <trkpt lat="42.83109" lon="0.30776">
        <ele>1198.006</ele>
        <time>2005-07-13T05:45:01Z</time>
      </trkpt>
      <trkpt lat="42.83121" lon="0.30705">
        <ele>1211.027</ele>
        <time>2005-07-13T05:45:01Z</time>
      </trkpt>
      <trkpt lat="42.83159" lon="0.30573">
        <ele>1233.022</ele>
        <time>2005-07-13T05:45:01Z</time>
      </trkpt>
      <trkpt lat="42.83158" lon="0.30533">
        <ele>1231.068</ele>
        <time>2005-07-13T05:45:01Z</time>
      </trkpt>
      <trkpt lat="42.83135" lon="0.30473">
        <ele>1222.033</ele>
        <time>2005-07-13T05:45:01Z</time>
      </trkpt>
      <trkpt lat="42.83173" lon="0.30273">
        <ele>1250.061</ele>
        <time>2005-07-13T05:45:01Z</time>
      </trkpt>
      <trkpt lat="42.83127" lon="0.30211">
        <ele>1235.065</ele>
        <time>2005-07-13T05:45:01Z</time>
      </trkpt>
      <trkpt lat="42.83108" lon="0.30156">
        <ele>1242.093</ele>
        <time>2005-07-13T05:45:01Z</time>
      </trkpt>
      <trkpt lat="42.8311" lon="0.30123">
        <ele>1252.065</ele>
        <time>2005-07-13T05:45:01Z</time>
      </trkpt>
      <trkpt lat="42.83086" lon="0.29907">
        <ele>1283.021</ele>
        <time>2005-07-13T05:45:01Z</time>
      </trkpt>
      <trkpt lat="42.83077" lon="0.29687">
        <ele>1290.006</ele>
        <time>2005-07-13T05:45:01Z</time>
      </trkpt>
      <trkpt lat="42.83097" lon="0.29687">
        <ele>1303.02</ele>
        <time>2005-07-13T05:45:01Z</time>
      </trkpt>
      <trkpt lat="42.83091" lon="0.29595">
        <ele>1302.045</ele>
        <time>2005-07-13T05:45:01Z</time>
      </trkpt>
      <trkpt lat="42.83081" lon="0.29556">
        <ele>1299.031</ele>
        <time>2005-07-13T05:45:01Z</time>
      </trkpt>
      <trkpt lat="42.83091" lon="0.29507">
        <ele>1307.056</ele>
        <time>2005-07-13T05:45:01Z</time>
      </trkpt>
      <trkpt lat="42.83075" lon="0.29486">
        <ele>1304.064</ele>
        <time>2005-07-13T05:45:01Z</time>
      </trkpt>
      <trkpt lat="42.82978" lon="0.29456">
        <ele>1290.018</ele>
        <time>2005-07-13T05:45:01Z</time>
      </trkpt>
      <trkpt lat="42.82966" lon="0.29392">
        <ele>1308.089</ele>
        <time>2005-07-13T05:45:01Z</time>
      </trkpt>
      <trkpt lat="42.82933" lon="0.2932">
        <ele>1318.006</ele>
        <time>2005-07-13T05:45:01Z</time>
      </trkpt>
      <trkpt lat="42.82927" lon="0.29259">
        <ele>1336.026</ele>
        <time>2005-07-13T05:45:01Z</time>
      </trkpt>
      <trkpt lat="42.82847" lon="0.29042">
        <ele>1341.006</ele>
        <time>2005-07-13T05:45:01Z</time>
      </trkpt>
      <trkpt lat="42.82848" lon="0.28972">
        <ele>1359.059</ele>
        <time>2005-07-13T05:45:01Z</time>
      </trkpt>
      <trkpt lat="42.8278" lon="0.28822">
        <ele>1349.094</ele>
        <time>2005-07-13T05:45:01Z</time>
      </trkpt>
      <trkpt lat="42.82792" lon="0.2877">
        <ele>1362.04</ele>
        <time>2005-07-13T05:45:01Z</time>
      </trkpt>
      <trkpt lat="42.82809" lon="0.28729">
        <ele>1368.065</ele>
        <time>2005-07-13T05:45:01Z</time>
      </trkpt>
      <trkpt lat="42.82745" lon="0.28649">
        <ele>1355.023</ele>
        <time>2005-07-13T05:45:01Z</time>
      </trkpt>
      <trkpt lat="42.82742" lon="0.28506">
        <ele>1384.037</ele>
        <time>2005-07-13T05:45:01Z</time>
      </trkpt>
      <trkpt lat="42.82762" lon="0.28054">
        <ele>1426.071</ele>
        <time>2005-07-13T05:45:01Z</time>
      </trkpt>
      <trkpt lat="42.82757" lon="0.2791">
        <ele>1433.041</ele>
        <time>2005-07-13T05:45:01Z</time>
      </trkpt>
      <trkpt lat="42.82714" lon="0.27759">
        <ele>1434.015</ele>
        <time>2005-07-13T05:45:01Z</time>
      </trkpt>
      <trkpt lat="42.82717" lon="0.27692">
        <ele>1446.006</ele>
        <time>2005-07-13T05:45:01Z</time>
      </trkpt>
      <trkpt lat="42.82707" lon="0.27607">
        <ele>1453.038</ele>
        <time>2005-07-13T05:45:01Z</time>
      </trkpt>
      <trkpt lat="42.82704" lon="0.27448">
        <ele>1476.053</ele>
        <time>2005-07-13T05:45:01Z</time>
      </trkpt>
      <trkpt lat="42.82623" lon="0.27216">
        <ele>1482.079</ele>
        <time>2005-07-13T05:45:01Z</time>
      </trkpt>
      <trkpt lat="42.82592" lon="0.27144">
        <ele>1485.084</ele>
        <time>2005-07-13T05:45:01Z</time>
      </trkpt>
      <trkpt lat="42.82599" lon="0.27052">
        <ele>1490.092</ele>
        <time>2005-07-13T05:45:01Z</time>
      </trkpt>
      <trkpt lat="42.82608" lon="0.27012">
        <ele>1494.036</ele>
        <time>2005-07-13T05:45:01Z</time>
      </trkpt>
      <trkpt lat="42.82589" lon="0.26958">
        <ele>1490.076</ele>
        <time>2005-07-13T05:45:01Z</time>
      </trkpt>
      <trkpt lat="42.82566" lon="0.26953">
        <ele>1482.09</ele>
        <time>2005-07-13T05:45:01Z</time>
      </trkpt>
      <trkpt lat="42.82565" lon="0.27008">
        <ele>1476.019</ele>
        <time>2005-07-13T05:45:01Z</time>
      </trkpt>
      <trkpt lat="42.82566" lon="0.27069">
        <ele>1473.006</ele>
        <time>2005-07-13T05:45:01Z</time>
      </trkpt>
      <trkpt lat="42.82542" lon="0.27112">
        <ele>1477.078</ele>
        <time>2005-07-13T05:45:01Z</time>
      </trkpt>
      <trkpt lat="42.82517" lon="0.27107">
        <ele>1484.083</ele>
        <time>2005-07-13T05:45:01Z</time>
      </trkpt>
      <trkpt lat="42.8252" lon="0.27016">
        <ele>1492.089</ele>
        <time>2005-07-13T05:45:01Z</time>
      </trkpt>
      <trkpt lat="42.82543" lon="0.26911">
        <ele>1491.034</ele>
        <time>2005-07-13T05:45:01Z</time>
      </trkpt>
      <trkpt lat="42.8253" lon="0.26832">
        <ele>1497.042</ele>
        <time>2005-07-13T05:45:01Z</time>
      </trkpt>
      <trkpt lat="42.82497" lon="0.26778">
        <ele>1507.016</ele>
        <time>2005-07-13T05:45:01Z</time>
      </trkpt>
      <trkpt lat="42.82521" lon="0.26576">
        <ele>1512.084</ele>
        <time>2005-07-13T05:45:01Z</time>
      </trkpt>
      <trkpt lat="42.82547" lon="0.26569">
        <ele>1522.007</ele>
        <time>2005-07-13T05:45:01Z</time>
      </trkpt>
      <trkpt lat="42.82571" lon="0.2662">
        <ele>1524.017</ele>
        <time>2005-07-13T05:45:01Z</time>
      </trkpt>
      <trkpt lat="42.82594" lon="0.26656">
        <ele>1528.006</ele>
        <time>2005-07-13T05:45:01Z</time>
      </trkpt>
      <trkpt lat="42.82608" lon="0.26594">
        <ele>1540.029</ele>
        <time>2005-07-13T05:45:01Z</time>
      </trkpt>
      <trkpt lat="42.82608" lon="0.2646">
        <ele>1554.084</ele>
        <time>2005-07-13T05:45:01Z</time>
      </trkpt>
      <trkpt lat="42.82682" lon="0.26692">
        <ele>1581.08</ele>
        <time>2005-07-13T05:45:01Z</time>
      </trkpt>
      <trkpt lat="42.82733" lon="0.26865">
        <ele>1589.095</ele>
        <time>2005-07-13T05:45:01Z</time>
      </trkpt>
      <trkpt lat="42.82836" lon="0.27099">
        <ele>1612.053</ele>
        <time>2005-07-13T05:45:01Z</time>
      </trkpt>
      <trkpt lat="42.82875" lon="0.27256">
        <ele>1612.057</ele>
        <time>2005-07-13T05:45:01Z</time>
      </trkpt>
      <trkpt lat="42.82919" lon="0.27337">
        <ele>1617.031</ele>
        <time>2005-07-13T05:45:01Z</time>
      </trkpt>
      <trkpt lat="42.82961" lon="0.27415">
        <ele>1624.061</ele>
        <time>2005-07-13T05:45:01Z</time>
      </trkpt>
      <trkpt lat="42.82982" lon="0.27445">
        <ele>1629.007</ele>
        <time>2005-07-13T05:45:01Z</time>
      </trkpt>
      <trkpt lat="42.83005" lon="0.2745">
        <ele>1641.006</ele>
        <time>2005-07-13T05:45:01Z</time>
      </trkpt>
      <trkpt lat="42.83004" lon="0.27416">
        <ele>1648.014</ele>
        <time>2005-07-13T05:45:01Z</time>
      </trkpt>
      <trkpt lat="42.82969" lon="0.27369">
        <ele>1640.019</ele>
        <time>2005-07-13T05:45:01Z</time>
      </trkpt>
      <trkpt lat="42.82917" lon="0.27105">
        <ele>1661.035</ele>
        <time>2005-07-13T05:45:01Z</time>
      </trkpt>
      <trkpt lat="42.82928" lon="0.27083">
        <ele>1672.02</ele>
        <time>2005-07-13T05:45:01Z</time>
      </trkpt>
      <trkpt lat="42.82944" lon="0.27116">
        <ele>1675.058</ele>
        <time>2005-07-13T05:45:01Z</time>
      </trkpt>
      <trkpt lat="42.82966" lon="0.27213">
        <ele>1668.062</ele>
        <time>2005-07-13T05:45:01Z</time>
      </trkpt>
      <trkpt lat="42.83001" lon="0.27279">
        <ele>1675.095</ele>
        <time>2005-07-13T05:45:01Z</time>
      </trkpt>
      <trkpt lat="42.83037" lon="0.27369">
        <ele>1678.049</ele>
        <time>2005-07-13T05:45:01Z</time>
      </trkpt>
      <trkpt lat="42.83057" lon="0.27357">
        <ele>1693.023</ele>
        <time>2005-07-13T05:45:01Z</time>
      </trkpt>
      <trkpt lat="42.8304" lon="0.27302">
        <ele>1694.006</ele>
        <time>2005-07-13T05:45:01Z</time>
      </trkpt>
      <trkpt lat="42.83002" lon="0.27185">
        <ele>1693.01</ele>
        <time>2005-07-13T05:45:01Z</time>
      </trkpt>
      <trkpt lat="42.8299" lon="0.27139">
        <ele>1696.085</ele>
        <time>2005-07-13T05:45:01Z</time>
      </trkpt>
      <trkpt lat="42.82988" lon="0.27075">
        <ele>1704.011</ele>
        <time>2005-07-13T05:45:01Z</time>
      </trkpt>
      <trkpt lat="42.82981" lon="0.27024">
        <ele>1709.016</ele>
        <time>2005-07-13T05:45:01Z</time>
      </trkpt>
      <trkpt lat="42.82991" lon="0.26993">
        <ele>1718.064</ele>
        <time>2005-07-13T05:45:01Z</time>
      </trkpt>
      <trkpt lat="42.83008" lon="0.27016">
        <ele>1721.098</ele>
        <time>2005-07-13T05:45:01Z</time>
      </trkpt>
      <trkpt lat="42.83009" lon="0.27068">
        <ele>1713.088</ele>
        <time>2005-07-13T05:45:01Z</time>
      </trkpt>
      <trkpt lat="42.83026" lon="0.27141">
        <ele>1710.024</ele>
        <time>2005-07-13T05:45:01Z</time>
      </trkpt>
      <trkpt lat="42.83058" lon="0.27207">
        <ele>1716.026</ele>
        <time>2005-07-13T05:45:01Z</time>
      </trkpt>
      <trkpt lat="42.83085" lon="0.27215">
        <ele>1728.006</ele>
        <time>2005-07-13T05:45:01Z</time>
      </trkpt>
      <trkpt lat="42.83107" lon="0.27187">
        <ele>1739.089</ele>
        <time>2005-07-13T05:45:01Z</time>
      </trkpt>
      <trkpt lat="42.83097" lon="0.27126">
        <ele>1739.034</ele>
        <time>2005-07-13T05:45:01Z</time>
      </trkpt>
      <trkpt lat="42.83076" lon="0.27087">
        <ele>1735.01</ele>
        <time>2005-07-13T05:45:01Z</time>
      </trkpt>
      <trkpt lat="42.83051" lon="0.27036">
        <ele>1732.035</ele>
        <time>2005-07-13T05:45:01Z</time>
      </trkpt>
      <trkpt lat="42.83054" lon="0.2696">
        <ele>1742.043</ele>
        <time>2005-07-13T05:45:01Z</time>
      </trkpt>
      <trkpt lat="42.8311" lon="0.26973">
        <ele>1757.097</ele>
        <time>2005-07-13T05:45:01Z</time>
      </trkpt>
      <trkpt lat="42.83145" lon="0.27039">
        <ele>1766.081</ele>
        <time>2005-07-13T05:45:01Z</time>
      </trkpt>
      <trkpt lat="42.83156" lon="0.27121">
        <ele>1769.061</ele>
        <time>2005-07-13T05:45:01Z</time>
      </trkpt>
      <trkpt lat="42.83176" lon="0.2712">
        <ele>1782.017</ele>
        <time>2005-07-13T05:45:01Z</time>
      </trkpt>
      <trkpt lat="42.83176" lon="0.27004">
        <ele>1779.006</ele>
        <time>2005-07-13T05:45:01Z</time>
      </trkpt>
      <trkpt lat="42.83166" lon="0.26959">
        <ele>1783.029</ele>
        <time>2005-07-13T05:45:01Z</time>
      </trkpt>
      <trkpt lat="42.83007" lon="0.26766">
        <ele>1786.094</ele>
        <time>2005-07-13T05:45:01Z</time>
      </trkpt>
      <trkpt lat="42.83" lon="0.26605">
        <ele>1808.02</ele>
        <time>2005-07-13T05:45:01Z</time>
      </trkpt>
      <trkpt lat="42.83017" lon="0.26574">
        <ele>1816.025</ele>
        <time>2005-07-13T05:45:01Z</time>
      </trkpt>
      <trkpt lat="42.83028" lon="0.26573">
        <ele>1820.063</ele>
        <time>2005-07-13T05:45:01Z</time>
      </trkpt>
      <trkpt lat="42.83027" lon="0.26646">
        <ele>1819.017</ele>
        <time>2005-07-13T05:45:01Z</time>
      </trkpt>
      <trkpt lat="42.83047" lon="0.26719">
        <ele>1816.051</ele>
        <time>2005-07-13T05:45:01Z</time>
      </trkpt>
      <trkpt lat="42.83067" lon="0.26737">
        <ele>1818.001</ele>
        <time>2005-07-13T05:45:01Z</time>
      </trkpt>
      <trkpt lat="42.83083" lon="0.26736">
        <ele>1824.011</ele>
        <time>2005-07-13T05:45:01Z</time>
      </trkpt>
      <trkpt lat="42.83068" lon="0.26657">
        <ele>1832.006</ele>
        <time>2005-07-13T05:45:01Z</time>
      </trkpt>
      <trkpt lat="42.83093" lon="0.26559">
        <ele>1844.086</ele>
        <time>2005-07-13T05:45:01Z</time>
      </trkpt>
      <trkpt lat="42.83127" lon="0.26438">
        <ele>1857.061</ele>
        <time>2005-07-13T05:45:01Z</time>
      </trkpt>
      <trkpt lat="42.83128" lon="0.2639">
        <ele>1860.077</ele>
        <time>2005-07-13T05:45:01Z</time>
      </trkpt>
      <trkpt lat="42.83112" lon="0.26369">
        <ele>1859.092</ele>
        <time>2005-07-13T05:45:01Z</time>
      </trkpt>
      <trkpt lat="42.8313" lon="0.26359">
        <ele>1863.02</ele>
        <time>2005-07-13T05:45:01Z</time>
      </trkpt>
      <trkpt lat="42.83178" lon="0.26412">
        <ele>1876.094</ele>
        <time>2005-07-13T05:45:01Z</time>
      </trkpt>
      <trkpt lat="42.83204" lon="0.26597">
        <ele>1879.097</ele>
        <time>2005-07-13T05:45:01Z</time>
      </trkpt>
      <trkpt lat="42.83248" lon="0.2666">
        <ele>1890.023</ele>
        <time>2005-07-13T05:45:01Z</time>
      </trkpt>
      <trkpt lat="42.83303" lon="0.26835">
        <ele>1893.025</ele>
        <time>2005-07-13T05:45:01Z</time>
      </trkpt>
      <trkpt lat="42.83337" lon="0.2688">
        <ele>1890.006</ele>
        <time>2005-07-13T05:45:01Z</time>
      </trkpt>
      <trkpt lat="42.83352" lon="0.26842">
        <ele>1905.05</ele>
        <time>2005-07-13T05:45:01Z</time>
      </trkpt>
      <trkpt lat="42.83344" lon="0.26748">
        <ele>1919.025</ele>
        <time>2005-07-13T05:45:01Z</time>
      </trkpt>
      <trkpt lat="42.83348" lon="0.26711">
        <ele>1922.071</ele>
        <time>2005-07-13T05:45:01Z</time>
      </trkpt>
      <trkpt lat="42.83328" lon="0.2663">
        <ele>1922.036</ele>
        <time>2005-07-13T05:45:01Z</time>
      </trkpt>
      <trkpt lat="42.83351" lon="0.26519">
        <ele>1942.074</ele>
        <time>2005-07-13T05:45:01Z</time>
      </trkpt>
      <trkpt lat="42.83335" lon="0.26407">
        <ele>1944.088</ele>
        <time>2005-07-13T05:45:01Z</time>
      </trkpt>
      <trkpt lat="42.83357" lon="0.26272">
        <ele>1959.037</ele>
        <time>2005-07-13T05:45:01Z</time>
      </trkpt>
      <trkpt lat="42.8337" lon="0.26155">
        <ele>1965.049</ele>
        <time>2005-07-13T05:45:01Z</time>
      </trkpt>
      <trkpt lat="42.83342" lon="0.25988">
        <ele>1972.013</ele>
        <time>2005-07-13T05:45:01Z</time>
      </trkpt>
      <trkpt lat="42.83322" lon="0.25855">
        <ele>1985.006</ele>
        <time>2005-07-13T05:45:01Z</time>
      </trkpt>
      <trkpt lat="42.83302" lon="0.2577">
        <ele>1990.044</ele>
        <time>2005-07-13T05:45:01Z</time>
      </trkpt>
      <trkpt lat="42.83258" lon="0.25707">
        <ele>1988.089</ele>
        <time>2005-07-13T05:45:01Z</time>
      </trkpt>
      <trkpt lat="42.83251" lon="0.25665">
        <ele>1992.085</ele>
        <time>2005-07-13T05:45:01Z</time>
      </trkpt>
      <trkpt lat="42.83265" lon="0.256">
        <ele>2005.06</ele>
        <time>2005-07-13T05:45:01Z</time>
      </trkpt>
      <trkpt lat="42.83264" lon="0.25429">
        <ele>2009.098</ele>
        <time>2005-07-13T05:45:01Z</time>
      </trkpt>
      <trkpt lat="42.8329" lon="0.25264">
        <ele>2012.082</ele>
        <time>2005-07-13T05:45:01Z</time>
      </trkpt>
      <trkpt lat="42.83348" lon="0.25146">
        <ele>2019.095</ele>
        <time>2005-07-13T05:45:01Z</time>
      </trkpt>
      <trkpt lat="42.83378" lon="0.25056">
        <ele>2023.049</ele>
        <time>2005-07-13T05:45:01Z</time>
      </trkpt>
      <trkpt lat="42.8344" lon="0.25008">
        <ele>2043.023</ele>
        <time>2005-07-13T05:45:01Z</time>
      </trkpt>
      <trkpt lat="42.8348" lon="0.2486">
        <ele>2055.006</ele>
        <time>2005-07-13T05:45:01Z</time>
      </trkpt>
      <trkpt lat="42.83487" lon="0.24774">
        <ele>2054.08</ele>
        <time>2005-07-13T05:45:01Z</time>
      </trkpt>
      <trkpt lat="42.83428" lon="0.2474">
        <ele>2038.085</ele>
        <time>2005-07-13T05:45:01Z</time>
      </trkpt>
      <trkpt lat="42.83468" lon="0.24604">
        <ele>2067.091</ele>
        <time>2005-07-13T05:45:01Z</time>
      </trkpt>
      <trkpt lat="42.83468" lon="0.24461">
        <ele>2079.096</ele>
        <time>2005-07-13T05:45:01Z</time>
      </trkpt>
      <trkpt lat="42.83505" lon="0.24316">
        <ele>2095.054</ele>
        <time>2005-07-13T05:45:01Z</time>
      </trkpt>
      <trkpt lat="42.83521" lon="0.24215">
        <ele>2102.068</ele>
        <time>2005-07-13T05:45:01Z</time>
      </trkpt>
      <trkpt lat="42.83502" lon="0.24163">
        <ele>2097.029</ele>
        <time>2005-07-13T05:45:01Z</time>
      </trkpt>
      <trkpt lat="42.83483" lon="0.24118">
        <ele>2094</ele>
        <time>2005-07-13T05:45:01Z</time>
      </trkpt>
      <trkpt lat="42.8351" lon="0.24108">
        <ele>2108.02</ele>
        <time>2005-07-13T05:45:01Z</time>
      </trkpt>
      <trkpt lat="42.83527" lon="0.24144">
        <ele>2111.006</ele>
        <time>2005-07-13T05:45:01Z</time>
      </trkpt>
      <trkpt lat="42.83541" lon="0.24193">
        <ele>2114.063</ele>
        <time>2005-07-13T05:45:01Z</time>
      </trkpt>
      <trkpt lat="42.83559" lon="0.2418">
        <ele>2124.028</ele>
        <time>2005-07-13T05:45:01Z</time>
      </trkpt>
      <trkpt lat="42.83539" lon="0.24092">
        <ele>2123.074</ele>
        <time>2005-07-13T05:45:01Z</time>
      </trkpt>
      <trkpt lat="42.83511" lon="0.24017">
        <ele>2122.079</ele>
        <time>2005-07-13T05:45:01Z</time>
      </trkpt>
      <trkpt lat="42.83487" lon="0.23959">
        <ele>2125.097</ele>
        <time>2005-07-13T05:45:01Z</time>
      </trkpt>
      <trkpt lat="42.83462" lon="0.23939">
        <ele>2123.081</ele>
        <time>2005-07-13T05:45:01Z</time>
      </trkpt>
      <trkpt lat="42.8336" lon="0.23876">
        <ele>2125.081</ele>
        <time>2005-07-13T05:45:01Z</time>
      </trkpt>
      <trkpt lat="42.83168" lon="0.2398">
        <ele>2131.061</ele>
        <time>2005-07-13T05:45:01Z</time>
      </trkpt>
      <trkpt lat="42.83098" lon="0.24065">
        <ele>2136.017</ele>
        <time>2005-07-13T05:45:01Z</time>
      </trkpt>
      <trkpt lat="42.8305" lon="0.24119">
        <ele>2137.006</ele>
        <time>2005-07-13T05:45:01Z</time>
      </trkpt>
      <trkpt lat="42.83029" lon="0.24095">
        <ele>2152.079</ele>
        <time>2005-07-13T05:45:01Z</time>
      </trkpt>
      <trkpt lat="42.83062" lon="0.24048">
        <ele>2153.024</ele>
        <time>2005-07-13T05:45:01Z</time>
      </trkpt>
      <trkpt lat="42.83085" lon="0.23974">
        <ele>2166.03</ele>
        <time>2005-07-13T05:45:01Z</time>
      </trkpt>
      <trkpt lat="42.83131" lon="0.23924">
        <ele>2163.085</ele>
        <time>2005-07-13T05:45:01Z</time>
      </trkpt>
      <trkpt lat="42.83186" lon="0.23848">
        <ele>2169.053</ele>
        <time>2005-07-13T05:45:01Z</time>
      </trkpt>
      <trkpt lat="42.8326" lon="0.23717">
        <ele>2197.097</ele>
        <time>2005-07-13T05:45:01Z</time>
      </trkpt>
      <trkpt lat="42.83304" lon="0.23701">
        <ele>2199.053</ele>
        <time>2005-07-13T05:45:01Z</time>
      </trkpt>
      <trkpt lat="42.83322" lon="0.23663">
        <ele>2206.004</ele>
        <time>2005-07-13T05:45:01Z</time>
      </trkpt>
      <trkpt lat="42.83236" lon="0.23648">
        <ele>2216.014</ele>
        <time>2005-07-13T05:45:01Z</time>
      </trkpt>
      <trkpt lat="42.83043" lon="0.2364">
        <ele>2268.006</ele>
        <time>2005-07-13T05:45:01Z</time>
      </trkpt>
      <trkpt lat="42.83032" lon="0.23674">
        <ele>2273.016</ele>
        <time>2005-07-13T05:45:01Z</time>
      </trkpt>
      <trkpt lat="42.83033" lon="0.23704">
        <ele>2272.091</ele>
        <time>2005-07-13T05:45:01Z</time>
      </trkpt>
      <trkpt lat="42.83012" lon="0.23696">
        <ele>2280.077</ele>
        <time>2005-07-13T05:45:01Z</time>
      </trkpt>
      <trkpt lat="42.82962" lon="0.2367">
        <ele>2293.062</ele>
        <time>2005-07-13T05:45:01Z</time>
      </trkpt>
      <trkpt lat="42.82887" lon="0.23697">
        <ele>2319.06</ele>
        <time>2005-07-13T05:45:01Z</time>
      </trkpt>
      <trkpt lat="42.82844" lon="0.23571">
        <ele>2308.054</ele>
        <time>2005-07-13T05:45:01Z</time>
      </trkpt>
      <trkpt lat="42.82786" lon="0.23484">
        <ele>2305.033</ele>
        <time>2005-07-13T05:45:01Z</time>
      </trkpt>
      <trkpt lat="42.82724" lon="0.23407">
        <ele>2297.023</ele>
        <time>2005-07-13T05:45:01Z</time>
      </trkpt>
      <trkpt lat="42.82664" lon="0.23364">
        <ele>2289.015</ele>
        <time>2005-07-13T05:45:01Z</time>
      </trkpt>
      <trkpt lat="42.82588" lon="0.23373">
        <ele>2272.006</ele>
        <time>2005-07-13T05:45:01Z</time>
      </trkpt>
    </trkseg>
  </trk>
</gpx>